Cervia Air Force Base LIPC

Flugplatz Daten

Name: Cervia Air Force Base

Ident: LIPC

Lat: 44,2242012

Long: 12,30720043

Platzhöhe: 18 ft

IataCode:

City: Cervia

Metar

2022/08/13 17:55
LIPC 131755Z 02008KT CAVOK 25/14 Q1012 RMK FEW FEW200 VIS MIN 9999 WIND THR11 02008KT WIND THR29 02006KT BLU

Taf

2013/12/14 06:24
TAF LIPC 140500Z 1406/1418 VRB03KT 5000 BR NSC
TEMPO 1406/1409 0500 BCFG SCT001
Gewünschte Webcam nicht vorhanden? Dann fügen Sie eine hinzu. Sie wird dann so schnell wie möglich freigeschaltet
Url: Title: